STARLINK-35150

Last updated on Sun Oct 19 2025 00:02:05 GMT+0000 (Coordinated Universal Time)

1 65635U 25210P 25291.25003472 -.00032123 00000+0 -79631-3 0 9998 2 65635 53.1606 250.4942 0001207 110.2850 30.9577 15.39626442 6000
UTC large
Height (km)
Speed (km/s)
/
Latitude / Longitude
Inclination (degrees)
Orbital Period (minutes)
Azimuth
Elevation
Range (km)
Doppler Factor

Next 0 passes for location: London (51.5072 / 0.1276)

Sorry there are no passes over London.
STARLINK-35150